Regional Weather Roundup
Issued by NWS

Home | Current Version | Previous Version | Graphics & Text | Print | Product List | Glossary On
Versions: 1 2 3 4 5 6 7 8 9 10 11 12 13 14 15 16 17 18 19 20 21 22 23 24 25 26 27 28 29 30 31 32 33 34 35 36 37 38 39 40 41 42 43 44 45 46 47 48 49 50
000
ASUS43 KLMK 032302
RWRKY
KENTUCKY REGIONAL WEATHER ROUNDUP
NATIONAL WEATHER SERVICE LOUISVILLE KY
700 PM EDT FRI JUL 03 2015

NOTE "FAIR" INDICATES FEW OR NO CLOUDS BELOW 12,000 FEET
WITH NO SIGNIFICANT WEATHER AND/OR OBSTRUCTIONS TO VISIBILITY.

KYZ001>023-026-027-061>063-070>075-040000-
WESTERN AND SOUTH CENTRAL KENTUCKY

CITY           SKY/WX    TMP DP  RH WIND       PRES   REMARKS
PADUCAH        CLOUDY    73  69  87 W7        29.86S
HENDERSON      PTSUNNY   81  68  65 N6        29.82S
OWENSBORO      TSTM      78  71  79 S8        29.84R HAZE
HOPKINSVILLE   CLOUDY    78  68  72 W17       29.88R
BOWLING GREEN  LGT RAIN  72  67  84 W7        29.86S
GLASGOW        NOT AVBL
$$

KYZ024-025-028>034-038-045-046-053-040000-
NORTH CENTRAL KENTUCKY

CITY           SKY/WX    TMP DP  RH WIND       PRES   REMARKS
LOUISVILLE/SDF LGT RAIN  77  69  76 W5        29.84R
LOUISVILLE/LOU CLOUDY    76  69  79 NW5       29.85R
FORT KNOX      TSTM      70  68  94 S12       29.84F FOG
$$

KYZ035>037-039>044-047>052-055>060-089>105-040000-
NORTHEAST KENTUCKY

CITY           SKY/WX    TMP DP  RH WIND       PRES   REMARKS
LEXINGTON      CLOUDY    71  69  93 SW5       29.85S
COVINGTON      CLOUDY    73  64  73 NE10      29.86F
FRANKFORT      CLOUDY    74  70  87 SW6       29.84R
$$

KYZ054-064>069-076>088-106>120-040000-
SOUTHEAST KENTUCKY

CITY           SKY/WX    TMP DP  RH WIND       PRES   REMARKS
JACKSON        CLOUDY    73  69  87 CALM      29.87F
LONDON         CLOUDY    74  67  78 S8        29.89R
SOMERSET       NOT AVBL
MIDDLESBORO    NOT AVBL
MONTICELLO     CLOUDY    77  71  81 SW13G18   29.90S THUNDER
$$



USA.gov is the U.S. government's official web portal to all federal, state and local government web resources and services.